Flag for U.S.A. Weather past 2 weeks in Boston, Massachusetts, U.S.A.

Now
60 °F

Passing clouds.


Feels Like: 60 °F
Forecast: 61 / 78 °F
Wind: 8 mph from South

Location: Logan International Airport

Current Time: May 25, 2015 at 4:12:48 AM

Latest Report: May 25, 2015 at 3:54 AM


Visibility: 10 mi

Pressure: 30.22 "Hg

Humidity: 69%

Dew point: 50 °F

Location of BostonLocation

Historic Weather in Boston — Graph

°F

Boston temperature yesterday

Maximum temperature yesterday: 82 °F (at 2:54 PM)
Minimum temperature yesterday: 51 °F (at 2:54 AM)
Average temperature yesterday: 68 °F

Past Weeks' High & Low Weather Summary

 TemperatureHumidityPressure
High88 °F (May 10, 2:54 PM)100% (May 10, 4:54 AM)30.34 "Hg (May 10, 4:54 AM)
Low44 °F (May 23, 5:54 AM)16% (May 22, 3:54 PM)29.62 "Hg (May 12, 4:54 PM)
Average61 °F60%30.06 "Hg
* Reported May 10 2:54 AM — May 25 2:54 AM, Boston, Weather by CustomWeather, © 2015

Note: Actual official high and low records may vary slightly from our data, if they occured in-between our weather recording intervals... More about our weather records

Advertising

Boston weather history for previous 24 hours

 ConditionsComfort  
Time TempWeatherWind HumidityBarometerVisibility
2:54 AM
Mon, May 25
61 °FPassing clouds.6 mph67%30.21 "Hg10 mi
1:54 AM63 °FPassing clouds.9 mph63%30.21 "Hg10 mi
12:54 AM65 °FClear.13 mph56%30.22 "Hg10 mi
11:54 PM
Sun, May 24
66 °FPassing clouds.14 mph52%30.22 "Hg10 mi
10:54 PM67 °FPassing clouds.17 mph49%30.22 "Hg10 mi
9:54 PM68 °FHigh level clouds.15 mph47%30.21 "Hg10 mi
8:54 PM70 °FMore clouds than sun.20 mph42%30.18 "Hg10 mi
7:54 PM73 °FMore clouds than sun.18 mph33%30.16 "Hg10 mi
6:54 PM78 °FMore clouds than sun.23 mph24%30.14 "Hg10 mi
5:54 PM81 °FBroken clouds.15 mph21%30.14 "Hg10 mi
4:54 PM81 °FScattered clouds.20 mph20%30.14 "Hg10 mi
3:54 PM82 °FScattered clouds.17 mph20%30.15 "Hg10 mi
2:54 PM82 °FPassing clouds.16 mph20%30.16 "Hg10 mi
1:54 PM81 °FSunny.17 mph21%30.18 "Hg10 mi
12:54 PM80 °FSunny.14 mph21%30.19 "Hg10 mi
11:54 AM77 °FSunny.13 mph23%30.21 "Hg10 mi
10:54 AM76 °FSunny.20 mph23%30.22 "Hg10 mi
9:54 AM71 °FPassing clouds.10 mph28%30.25 "Hg10 mi
8:54 AM66 °FPassing clouds.14 mph32%30.26 "Hg10 mi
7:54 AM60 °FPassing clouds.14 mph42%30.26 "Hg10 mi
6:54 AM55 °FScattered clouds.12 mph51%30.26 "Hg10 mi
5:54 AM53 °FPassing clouds.15 mph56%30.25 "Hg10 mi
4:54 AM52 °FPassing clouds.16 mph59%30.25 "Hg10 mi
Weather by CustomWeather, © 2015

See weather overviewHow to use our weather pages